Le nostre stazioni meteo in Italia

Pubblicità
Il mio iltempo24.it
Threave, Gran Bretagna (99090): Temperatura & dewpoint: 22.06.2017 23:00:00 - 28.06.2017 23:00:00 (BST)Threave, Gran Bretagna (99090): Temperatura -20cm & Temperatura -100cm: 22.06.2017 23:00:00 - 28.06.2017 23:00:00 (BST)Threave, Gran Bretagna (99090): visibility: 22.06.2017 23:00:00 - 28.06.2017 23:00:00 (BST)Threave, Gran Bretagna (99090): precipitazioni: 22.06.2017 23:00:00 - 28.06.2017 23:00:00 (BST)
Data & Tempo tt [°C] td [°C] tt -20cm [°C] tt -100cm [°C] vv [km] rr [mm]
28.06.2017 23:00:00 9,8 6,4 - - - 0,0
28.06.2017 22:00:00 10,7 6,2 - - - 0,0
28.06.2017 21:00:00 11,3 6,4 - - - 0,0
28.06.2017 20:00:00 11,9 6,9 - - - 0,0
28.06.2017 19:00:00 13,0 7,8 - - - 0,0
28.06.2017 18:00:00 13,6 7,9 - - - 0,0
28.06.2017 17:00:00 13,9 8,4 - - - 0,0
28.06.2017 16:00:00 14,1 8,5 - - - 0,0
28.06.2017 15:00:00 14,4 9,1 - - - 0,0
28.06.2017 14:00:00 14,6 9,1 - - - 0,0
28.06.2017 13:00:00 15,4 9,6 - - - 0,0
28.06.2017 12:00:00 14,0 10,0 - - - 0,0
28.06.2017 11:00:00 14,9 10,3 - - - 0,0
28.06.2017 10:00:00 12,7 10,4 15,4 14,2 2,0 0,0
28.06.2017 09:00:00 12,5 10,0 - - - 0,0
28.06.2017 08:00:00 12,2 10,5 - - - 0,0
28.06.2017 07:00:00 11,5 10,4 - - - 0,0
28.06.2017 06:00:00 11,0 10,2 - - - 0,0
28.06.2017 05:00:00 10,6 10,0 - - - 0,0
28.06.2017 04:00:00 11,0 10,5 - - - 0,0
28.06.2017 03:00:00 11,3 11,0 - - - 0,2
28.06.2017 02:00:00 11,5 11,2 - - - 1,2
28.06.2017 01:00:00 11,8 11,5 - - - 0,4
28.06.2017 00:00:00 12,2 11,9 - - - -
27.06.2017 23:00:00 12,4 12,0 - - - 3,0
27.06.2017 22:00:00 12,6 12,3 - - - 2,2
27.06.2017 21:00:00 13,0 12,6 - - - 2,0
27.06.2017 20:00:00 13,1 12,7 - - - 1,0
27.06.2017 19:00:00 13,0 12,6 - - - 0,2
27.06.2017 18:00:00 13,0 12,4 - - - 1,0
27.06.2017 17:00:00 13,1 12,5 - - - 1,2
27.06.2017 16:00:00 13,2 12,8 - - - 1,8
27.06.2017 15:00:00 12,6 12,2 - - - 0,0
27.06.2017 14:00:00 12,2 11,6 - - - 0,8
27.06.2017 13:00:00 12,2 11,6 - - - 0,4
27.06.2017 12:00:00 12,0 11,5 - - - 0,6
27.06.2017 11:00:00 12,0 11,6 - - - 2,0
27.06.2017 10:00:00 11,5 11,3 15,7 14,2 50 1,8
27.06.2017 09:00:00 11,2 11,0 - - - 1,8
27.06.2017 08:00:00 10,7 10,4 - - - 2,6
27.06.2017 07:00:00 10,7 10,4 - - - 2,2
27.06.2017 06:00:00 10,9 10,5 - - - 2,0
27.06.2017 05:00:00 11,1 10,7 - - - 2,0
27.06.2017 04:00:00 11,2 10,9 - - - 1,8
27.06.2017 03:00:00 10,9 10,6 - - - 1,8
27.06.2017 02:00:00 10,2 9,7 - - - 0,6
27.06.2017 01:00:00 10,0 9,2 - - - 1,6
27.06.2017 00:00:00 10,7 10,1 - - - 1,0
26.06.2017 23:00:00 11,0 10,1 - - - 0,2
26.06.2017 22:00:00 11,3 9,6 - - - 0,2
26.06.2017 21:00:00 13,0 8,9 - - - 0,0
26.06.2017 20:00:00 14,8 8,9 - - - 0,0
26.06.2017 19:00:00 15,0 8,6 - - - 0,0
26.06.2017 18:00:00 15,2 9,5 - - - 0,0
26.06.2017 17:00:00 14,9 8,8 - - - 0,0
26.06.2017 16:00:00 14,6 9,0 - - - 0,0
26.06.2017 15:00:00 13,8 9,2 - - - 0,0
26.06.2017 14:00:00 13,9 9,5 - - - 0,0
26.06.2017 13:00:00 14,4 9,0 - - - 0,0
26.06.2017 12:00:00 13,3 10,0 - - - 0,0
26.06.2017 11:00:00 14,4 9,0 - - - 0,0
26.06.2017 10:00:00 13,9 9,2 16,0 14,2 1,3 0,0
26.06.2017 09:00:00 12,4 9,5 - - - 0,0
26.06.2017 08:00:00 11,2 8,9 - - - 0,0
26.06.2017 07:00:00 9,6 8,8 - - - 0,0
26.06.2017 06:00:00 8,1 7,6 - - - 0,0
26.06.2017 05:00:00 6,7 6,4 - - - 0,0
26.06.2017 04:00:00 6,5 5,7 - - - 0,0
26.06.2017 03:00:00 6,5 5,7 - - - 0,0
26.06.2017 02:00:00 6,9 6,1 - - - 0,0
26.06.2017 01:00:00 6,8 5,9 - - - 0,0
26.06.2017 00:00:00 7,8 6,3 - - - 0,0
25.06.2017 23:00:00 8,8 6,0 - - - 0,0
25.06.2017 22:00:00 10,2 5,6 - - - 0,0
25.06.2017 21:00:00 12,8 5,6 - - - 0,0
25.06.2017 20:00:00 13,3 6,3 - - - 0,0
25.06.2017 19:00:00 14,8 6,9 - - - 0,0
25.06.2017 18:00:00 15,7 6,5 - - - 0,0
25.06.2017 17:00:00 16,2 7,3 - - - 0,0
25.06.2017 16:00:00 14,7 7,4 - - - 0,0
25.06.2017 15:00:00 15,0 7,8 - - - 0,0
25.06.2017 14:00:00 14,0 6,8 - - - 0,0
25.06.2017 13:00:00 13,9 7,2 - - - 0,0
25.06.2017 12:00:00 14,3 6,7 - - - 0,0
25.06.2017 11:00:00 14,1 7,0 - - - 0,0
25.06.2017 10:00:00 14,3 7,3 16,7 14,4 24 0,0
25.06.2017 09:00:00 12,6 6,3 - - - 0,0
25.06.2017 08:00:00 12,0 8,7 - - - 0,0
25.06.2017 07:00:00 10,4 8,0 - - - 0,0
25.06.2017 06:00:00 9,7 7,6 - - - 0,0
25.06.2017 05:00:00 10,1 8,0 - - - 0,0
25.06.2017 04:00:00 10,0 7,9 - - - 0,0
25.06.2017 03:00:00 10,6 7,7 - - - 0,0
25.06.2017 02:00:00 11,2 8,1 - - - 0,0
25.06.2017 01:00:00 11,0 8,3 - - - 0,0
25.06.2017 00:00:00 11,7 8,0 - - - 0,0
24.06.2017 23:00:00 12,1 8,0 - - - 0,0
24.06.2017 22:00:00 12,5 8,4 - - - 0,0
24.06.2017 21:00:00 13,1 8,3 - - - 0,0
24.06.2017 20:00:00 13,7 7,7 - - - 0,0
24.06.2017 19:00:00 14,5 8,1 - - - 0,0
24.06.2017 18:00:00 15,1 7,3 - - - 0,0
24.06.2017 17:00:00 15,3 7,4 - - - 0,0
24.06.2017 16:00:00 16,0 8,5 - - - 0,0
24.06.2017 15:00:00 15,4 8,4 - - - 0,0
24.06.2017 14:00:00 15,6 7,1 - - - 0,0
24.06.2017 13:00:00 15,5 8,2 - - - 0,0
24.06.2017 12:00:00 16,0 10,5 - - - 0,0
24.06.2017 11:00:00 14,9 11,2 - - - 0,0
24.06.2017 10:00:00 14,5 10,2 16,7 14,4 16 0,0
24.06.2017 09:00:00 13,5 10,1 - - - 0,0
24.06.2017 08:00:00 12,5 9,9 - - - 0,0
24.06.2017 07:00:00 12,0 9,6 - - - 0,0
24.06.2017 06:00:00 11,3 7,9 - - - 0,0
24.06.2017 05:00:00 10,7 7,4 - - - 0,0
24.06.2017 04:00:00 10,3 7,7 - - - 0,0
24.06.2017 03:00:00 10,5 8,8 - - - 0,0
24.06.2017 02:00:00 10,3 8,5 - - - 0,0
24.06.2017 01:00:00 10,5 8,8 - - - 0,0
24.06.2017 00:00:00 10,3 9,3 - - - 0,0
23.06.2017 23:00:00 11,3 9,6 - - - 0,0
23.06.2017 22:00:00 11,8 9,3 - - 10 0,0
23.06.2017 21:00:00 14,6 10,2 - - - 0,0
23.06.2017 20:00:00 15,1 11,8 - - - 0,0
23.06.2017 19:00:00 15,3 13,0 - - - 0,0
23.06.2017 18:00:00 14,6 12,8 - - - 0,0
23.06.2017 17:00:00 14,3 12,6 - - - 0,0
23.06.2017 16:00:00 13,9 12,7 - - - 0,0
23.06.2017 15:00:00 14,1 12,8 - - - 0,0
23.06.2017 14:00:00 14,1 13,4 - - - 1,8
23.06.2017 13:00:00 15,5 14,4 - - - 0,0
23.06.2017 12:00:00 15,6 14,3 - - - 0,0
23.06.2017 11:00:00 14,7 14,0 - - - 0,0
23.06.2017 10:00:00 14,1 13,7 17,4 14,2 2,0 0,4
23.06.2017 09:00:00 13,5 12,9 - - - 0,2
23.06.2017 08:00:00 13,5 12,6 - - - 0,0
23.06.2017 07:00:00 13,1 12,4 - - - 0,4
23.06.2017 06:00:00 12,7 12,1 - - - 3,8
23.06.2017 05:00:00 12,8 12,2 - - - 7,0
23.06.2017 04:00:00 13,1 11,8 - - - 1,2
23.06.2017 03:00:00 13,4 11,3 - - - 0,0
23.06.2017 02:00:00 13,0 11,2 - - - 0,0
23.06.2017 01:00:00 13,5 10,5 - - - 0,0
23.06.2017 00:00:00 13,5 11,7 - - - 0,0
22.06.2017 23:00:00 13,7 11,5 - - - 0,0

tt = Temperatura
td = dewpoint
tt -20cm = Temperatura -20cm
tt -100cm = Temperatura -100cm
vv = visibility
rr = precipitazioni

Stazioni seguenti

WeatherPro
AMSI
MeteoEarth